Flag for Norway Weather past 2 weeks in Narvik, Norway

Now
59 °F

Scattered clouds.


Feels Like: 57 °F
Forecast: 50 / 61 °F
Wind: 12 mph from Northeast

Location: Narvik Iii

Current Time: Aug 20, 2014 at 8:49:22 PM

Latest Report: Aug 20, 2014 at 7:50 PM


Visibility: N/A

Pressure: 29.50 "Hg

Humidity: 59%

Dew point: 45 °F

Location of NarvikLocation

Historic Weather in Narvik — Graph

°F

Narvik temperature yesterday

Maximum temperature yesterday: 61 °F (at 12:50 PM)
Minimum temperature yesterday: 54 °F (at 6:50 AM)
Average temperature yesterday: 58 °F

Past Weeks' High & Low Weather Summary

 TemperatureHumidityPressure
High77 °F (Aug 11, 5:50 PM)100% (Aug 13, 5:50 AM)30.07 "Hg (Aug 13, 5:50 AM)
Low46 °F (Aug 18, 5:50 AM)44% (Aug 11, 5:50 PM)29.30 "Hg (Aug 13, 5:50 AM)
Average60 °F76%29.63 "Hg
* Reported Aug 5 7:50 PM — Aug 20 7:50 PM, Narvik, Weather by CustomWeather, © 2014

Note: Actual official high and low records may vary slightly from our data, if they occured in-between our weather recording intervals... More about our weather records

Advertising

Narvik weather history for previous 24 hours

 ConditionsComfort  
Time TempWeatherWind HumidityBarometerVisibility
7:50 PM
Aug 20
59 °FScattered clouds.12 mph59%29.50 "HgN/A
6:50 PM59 °FScattered clouds.10 mph59%29.47 "HgN/A
5:50 PM61 °FPartly sunny.14 mph55%29.47 "HgN/A
4:50 PM61 °FPartly sunny.16 mph59%29.47 "HgN/A
3:50 PM64 °FPartly sunny.14 mph52%29.47 "HgN/A
2:50 PM63 °FPartly sunny.13 mph56%29.47 "HgN/A
1:50 PM63 °FPartly sunny.9 mph56%29.47 "HgN/A
12:50 PM61 °FBroken clouds.7 mph59%29.47 "HgN/A
11:50 AM63 °FBroken clouds.2 mph59%29.47 "HgN/A
10:50 AM59 °FBroken clouds.No wind72%29.47 "HgN/A
9:50 AM57 °FBroken clouds.2 mph82%29.47 "HgN/A
8:50 AM55 °FPartly sunny.No wind77%29.47 "HgN/A
7:50 AM55 °FPartly sunny.2 mph82%29.47 "HgN/A
6:50 AM54 °FPartly sunny.3 mph82%29.45 "HgN/A
5:50 AM54 °FPartly sunny.2 mph82%29.45 "HgN/A
8:50 PM
Aug 19
57 °FPartly sunny.3 mph67%29.45 "HgN/A
Weather by CustomWeather, © 2014

See weather overviewHow to use our weather pages